Погода в Урлу-Аспаке

Россия / Республика Алтай     51°41′08″N   86°12′38″E
темп.,
°C
ветер,
м/с
пор.,
м/с
влажн.,
%
обл.,
%
осадки,
мм/ч
давл.,
гПа
погр.,
м
11 апреля, вс
вс1101:00−6ююв119651 0.0 103727
04:00−6ююв119865 0.0 103781
07:00−6ю219431 0.0 103874
10:00+1всв11808 0.0 1037458
13:00+5св22717 0.0 1035741
16:00+6ссв22688 0.0 1034796
19:00+3ссв12909 0.0 103649
22:00−2ююв119696 0.0 103812
12 апреля, пн
пн1201:00−2ю22955 0.0 103816
04:00−3ю229211 0.0 103619
07:00−2ю228767 0.0 103722
10:00+7ююз126221 0.0 1033303
13:00+11ссз11495 0.0 1031728
16:00+12с114770 0.0 1029815
19:00+8с1187100 0.0 103038
22:00+2ю219566 0.0 103215
13 апреля, вт
вт1301:00+2ююз219370 0.0 103122
04:000ююз219478 0.0 103019
07:000юз119496 0.0 103143
10:00+5сз2281100 0.0 1028387
13:00+5сз2465100 0.0 1029771
16:00+2сз2394100 0.3 1032375
19:000сз1299100 1.0 1035123
22:00−2з119755 0.2 103782
14 апреля, ср
ср1401:00−2ююз129554 0.2 1037121
04:00−3ююз119659 0.0 103731
07:00−2ююз129381 0.0 103773
10:00+3зсз126370 0.0 1036745
13:00+6зсз23455 0.0 10341236
16:00+7сз23495 0.0 10321216
19:00+4с2370100 0.0 1031127
22:00+1ю1183100 0.0 103112
15 апреля, чт
чт1501:00+1ю2279100 0.0 102916
04:00+1ююз117987 0.0 102811
07:00+1ююз227794 0.0 102725
10:00+7з11555 0.0 1025483
13:00+10с22455 0.0 10221305
16:00+11с22404 0.0 10211448
19:00+8ссв23612 0.0 1021249
22:00+4ююв11786 0.0 102210